TimeCST,TemperatureF,Dew PointF,Humidity,Sea Level PressureIn,VisibilityMPH,Wind Direction,Wind SpeedMPH,Gust SpeedMPH,PrecipitationIn,Events,Conditions,WindDirDegrees,DateUTC
12:53 AM,60.1,55.0,83,29.94,10.0,SSE,10.4,-,N/A,,Clear,150,2012-12-01 06:53:00
2:53 AM,57.0,54.0,89,29.92,10.0,SSE,10.4,-,N/A,,Clear,160,2012-12-01 08:53:00
3:53 AM,57.0,54.0,89,29.91,10.0,South,9.2,-,N/A,,Clear,170,2012-12-01 09:53:00
4:53 AM,55.9,54.0,93,29.90,10.0,South,8.1,-,N/A,,Clear,170,2012-12-01 10:53:00
5:53 AM,55.9,54.0,93,29.91,10.0,SSE,9.2,-,N/A,,Clear,160,2012-12-01 11:53:00
6:53 AM,55.9,54.0,93,29.92,9.0,SSE,8.1,-,N/A,,Clear,160,2012-12-01 12:53:00
7:53 AM,57.9,55.0,90,29.92,8.0,South,15.0,21.9,N/A,,Clear,180,2012-12-01 13:53:00
8:53 AM,60.1,57.0,90,29.92,9.0,South,16.1,26.5,N/A,,Scattered Clouds,180,2012-12-01 14:53:00
9:00 AM,60.8,57.2,88,29.93,9.0,South,15.0,-,N/A,,Mostly Cloudy,180,2012-12-01 15:00:00
9:33 AM,62.6,57.2,82,29.93,10.0,South,20.7,27.6,N/A,,Partly Cloudy,190,2012-12-01 15:33:00
9:53 AM,64.0,57.9,80,29.93,10.0,South,18.4,27.6,N/A,,Clear,190,2012-12-01 15:53:00
10:53 AM,68.0,55.9,65,29.91,10.0,SSW,15.0,24.2,N/A,,Clear,200,2012-12-01 16:53:00
11:53 AM,73.0,55.9,55,29.88,10.0,SSW,17.3,26.5,N/A,,Clear,210,2012-12-01 17:53:00
1:53 PM,79.0,46.0,31,29.83,10.0,SSW,15.0,25.3,N/A,,Clear,210,2012-12-01 19:53:00
2:53 PM,82.0,46.0,28,29.81,10.0,SSW,15.0,24.2,N/A,,Clear,200,2012-12-01 20:53:00
3:53 PM,82.9,41.0,23,29.81,10.0,South,15.0,26.5,N/A,,Clear,190,2012-12-01 21:53:00
5:53 PM,73.9,39.0,28,29.83,10.0,South,10.4,-,N/A,,Clear,190,2012-12-01 23:53:00
6:53 PM,70.0,43.0,38,29.85,10.0,South,9.2,-,N/A,,Clear,190,2012-12-02 00:53:00
7:53 PM,63.0,46.0,54,29.87,10.0,South,8.1,-,N/A,,Clear,180,2012-12-02 01:53:00
8:53 PM,62.1,41.0,46,29.88,10.0,South,5.8,-,N/A,,Clear,190,2012-12-02 02:53:00
9:53 PM,60.1,39.9,47,29.90,10.0,SSW,8.1,-,N/A,,Clear,200,2012-12-02 03:53:00
10:53 PM,52.0,39.0,61,29.92,10.0,Calm,Calm,-,N/A,,Clear,0,2012-12-02 04:53:00
11:53 PM,53.1,37.9,57,29.93,10.0,South,3.5,-,N/A,,Clear,180,2012-12-02 05:53:00